Location: Baili�vre
(50.0696°N, 4.2409°E)
Time: 17:43:52
(UTC+00:00)

Cosmos 1975 Rocket - Pass Details

Date: 08 August 2020
Orbit: 603 x 635 km, 82.5° (Epoch: 25 September)

Event Time Altitude Azimuth Distance (km) Brightness Sun altitude
Rises 23:35:28 0° 352° (N) 2,947 8.0 -24.1°
Reaches altitude 10° 23:37:45 10° 356° (N) 2,033 6.8 -24.1°
Maximum altitude 23:42:14 63° 77° (ENE) 713 3.3 -24.1°
Enters shadow 23:42:25 62° 92° (E) 717 3.2 -24.1°
